,,Stat6,,Stat2,,Stat8,,Stat9,,Stat10,,Wind1,,Wind1,
time,status,PA1M_AVG,status,PR1M_SUM,status,RH1M_AVG,status,SR1M_AVG,status,TA1M_AVG,status,W1dAve1m,status,W1sAve1m,
2004-02-24, 00:00:01,VALID,919.335,VALID,0,VALID,97.3261,VALID,-0.0169808,VALID,18.5577,VALID,123,VALID,1.36163,
2004-02-24, 00:01:00,VALID,919.332,VALID,0,VALID,97.2727,VALID,-0.0339617,VALID,18.5423,VALID,116,VALID,1.2044,
2004-02-24, 00:02:00,VALID,919.326,VALID,0,VALID,97.3871,VALID,0,VALID,18.5388,VALID,111,VALID,1.21224,
2004-02-24, 00:03:00,VALID,919.333,VALID,0,VALID,97.0209,VALID,-0.0509425,VALID,18.5127,VALID,103,VALID,1.34102,
2004-02-24, 00:04:00,VALID,919.322,VALID,0,VALID,97.0082,VALID,-0.0509425,VALID,18.5065,VALID,68,VALID,0.825586,
2004-02-24, 00:05:00,VALID,919.316,VALID,0,VALID,96.9802,VALID,-0.0169808,VALID,18.5388,VALID,91,VALID,0.776843,
2004-02-24, 00:06:01,VALID,919.307,VALID,0,VALID,96.8276,VALID,-0.0509425,VALID,18.5416,VALID,63,VALID,0.831759,
2004-02-24, 00:07:00,VALID,919.308,VALID,0,VALID,96.4855,VALID,-0.0339617,VALID,18.5577,VALID,80,VALID,0.72433,
2004-02-24, 00:08:00,VALID,919.302,VALID,0,VALID,95.7963,VALID,-0.0339617,VALID,18.5616,VALID,96,VALID,0.783381,
2004-02-24, 00:09:01,VALID,919.311,VALID,0,VALID,95.4759,VALID,-0.0679233,VALID,18.5646,VALID,99,VALID,0.636533,
2004-02-24, 00:10:01,VALID,919.317,VALID,0,VALID,95.5865,VALID,-0.0339617,VALID,18.5905,VALID,101,VALID,0.767401,
2004-02-24, 00:11:00,VALID,919.32,VALID,0,VALID,95.72,VALID,-0.0509425,VALID,18.6158,VALID,101,VALID,0.596236,
2004-02-24, 00:12:01,VALID,919.328,VALID,0,VALID,95.8345,VALID,-0.0169808,VALID,18.6647,VALID,106,VALID,0.873001,
2004-02-24, 00:13:00,VALID,919.327,VALID,0,VALID,95.6679,VALID,-0.0509425,VALID,18.6384,VALID,101,VALID,0.907366,
2004-02-24, 00:14:01,VALID,919.335,VALID,0,VALID,96.0532,VALID,0,VALID,18.6612,VALID,113,VALID,0.926067,
2004-02-24, 00:15:00,VALID,919.326,VALID,0,VALID,96.4614,VALID,-0.0169808,VALID,18.6841,VALID,133,VALID,0.960751,
2004-02-24, 00:16:01,VALID,919.334,VALID,0,VALID,96.4461,VALID,-0.0509425,VALID,18.6679,VALID,129,VALID,1.44752,
2004-02-24, 00:17:00,VALID,919.33,VALID,0,VALID,96.0824,VALID,-0.0339617,VALID,18.6186,VALID,130,VALID,1.55915,
2004-02-24, 00:18:00,VALID,919.322,VALID,0,VALID,95.7366,VALID,0,VALID,18.59,VALID,132,VALID,1.72148,
2004-02-24, 00:19:01,VALID,919.317,VALID,0,VALID,95.8624,VALID,0.0169808,VALID,18.5838,VALID,128,VALID,1.68681,
2004-02-24, 00:20:00,VALID,919.312,VALID,0,VALID,96.0265,VALID,-0.0339617,VALID,18.5833,VALID,126,VALID,1.35774,
2004-02-24, 00:21:00,VALID,919.318,VALID,0,VALID,96.1397,VALID,-0.0509425,VALID,18.5905,VALID,117,VALID,1.21675,
2004-02-24, 00:22:01,VALID,919.317,VALID,0,VALID,96.0519,VALID,-0.0169808,VALID,18.554,VALID,128,VALID,1.34952,
2004-02-24, 00:23:00,VALID,919.315,VALID,0,VALID,96.0786,VALID,-0.0849042,VALID,18.5545,VALID,118,VALID,1.31678,
2004-02-24, 00:24:01,VALID,919.309,VALID,0,VALID,96.0252,VALID,-0.0339617,VALID,18.5676,VALID,117,VALID,1.34851,
2004-02-24, 00:25:00,VALID,919.302,VALID,0,VALID,96.0532,VALID,-0.0509425,VALID,18.5512,VALID,111,VALID,1.19186,
2004-02-24, 00:26:01,VALID,919.286,VALID,0,VALID,96.0507,VALID,-0.0169808,VALID,18.5612,VALID,116,VALID,1.05941,
2004-02-24, 00:27:01,VALID,919.286,VALID,0,VALID,96.2172,VALID,-0.0339617,VALID,18.5711,VALID,114,VALID,0.923177,
2004-02-24, 00:28:01,VALID,919.267,VALID,0,VALID,96.3164,VALID,-0.0169808,VALID,18.5768,VALID,109,VALID,0.941576,
2004-02-24, 00:29:01,VALID,919.245,VALID,0,VALID,96.4143,VALID,-0.0679233,VALID,18.5937,VALID,105,VALID,0.910061,
2004-02-24, 00:30:01,VALID,919.242,VALID,0,VALID,96.0863,VALID,0,VALID,18.5865,VALID,97,VALID,0.922965,
2004-02-24, 00:31:01,VALID,919.235,VALID,0,VALID,96.1549,VALID,-0.0169808,VALID,18.6126,VALID,100,VALID,0.765455,
2004-02-24, 00:32:00,VALID,919.236,VALID,0,VALID,96.0112,VALID,-0.0169808,VALID,18.6481,VALID,130,VALID,1.21992,
2004-02-24, 00:33:00,VALID,919.212,VALID,0,VALID,95.6081,VALID,-0.0339617,VALID,18.6608,VALID,121,VALID,1.20982,
2004-02-24, 00:34:01,VALID,919.217,VALID,0,VALID,95.5306,VALID,0,VALID,18.7064,VALID,120,VALID,0.970274,
2004-02-24, 00:35:01,VALID,919.207,VALID,0,VALID,95.4263,VALID,0,VALID,18.7355,VALID,118,VALID,0.887962,
2004-02-24, 00:36:01,VALID,919.192,VALID,0,VALID,95.7887,VALID,-0.0169808,VALID,18.7673,VALID,117,VALID,0.781432,
2004-02-24, 00:37:01,VALID,919.186,VALID,0,VALID,95.8027,VALID,-0.0169808,VALID,18.7902,VALID,118,VALID,1.008,
2004-02-24, 00:38:01,VALID,919.18,VALID,0,VALID,95.9502,VALID,0,VALID,18.8095,VALID,121,VALID,1.02077,
2004-02-24, 00:39:01,VALID,919.167,VALID,0,VALID,95.8459,VALID,0,VALID,18.8224,VALID,124,VALID,0.978561,
2004-02-24, 00:40:01,VALID,919.156,VALID,0,VALID,95.6565,VALID,-0.0339617,VALID,18.8287,VALID,119,VALID,1.0928,
2004-02-24, 00:41:01,VALID,919.137,VALID,0,VALID,95.6514,VALID,-0.0169808,VALID,18.8319,VALID,115,VALID,1.18784,
2004-02-24, 00:42:01,VALID,919.136,VALID,0,VALID,95.5992,VALID,0,VALID,18.8418,VALID,117,VALID,1.5101,
2004-02-24, 00:43:01,VALID,919.118,VALID,0,VALID,95.4886,VALID,0,VALID,18.8316,VALID,124,VALID,1.49165,
2004-02-24, 00:44:01,VALID,919.099,VALID,0,VALID,95.4683,VALID,-0.0169808,VALID,18.8155,VALID,122,VALID,1.59375,
2004-02-24, 00:45:01,VALID,919.103,VALID,0,VALID,95.6259,VALID,-0.0169808,VALID,18.8319,VALID,132,VALID,1.57199,
2004-02-24, 00:46:00,VALID,919.077,VALID,0,VALID,95.5662,VALID,-0.0169808,VALID,18.8091,VALID,134,VALID,1.80061,
2004-02-24, 00:47:01,VALID,919.062,VALID,0,VALID,95.3004,VALID,0,VALID,18.7835,VALID,129,VALID,1.69512,
2004-02-24, 00:48:01,VALID,919.052,VALID,0,VALID,95.5509,VALID,0,VALID,18.7676,VALID,131,VALID,1.48996,
2004-02-24, 00:49:01,VALID,919.046,VALID,0,VALID,95.4352,VALID,0,VALID,18.7509,VALID,131,VALID,1.73455,
2004-02-24, 00:50:00,VALID,919.038,VALID,0,VALID,95.6069,VALID,-0.0169808,VALID,18.7353,VALID,131,VALID,1.45089,
2004-02-24, 00:51:00,VALID,919.029,VALID,0,VALID,95.6234,VALID,-0.0169808,VALID,18.709,VALID,128,VALID,1.7049,
2004-02-24, 00:52:01,VALID,919.006,VALID,0,VALID,95.6921,VALID,-0.0339617,VALID,18.6931,VALID,131,VALID,1.86111,
2004-02-24, 00:53:01,VALID,919.004,VALID,0,VALID,95.9922,VALID,0,VALID,18.6576,VALID,132,VALID,1.75078,
2004-02-24, 00:54:01,VALID,918.996,VALID,0,VALID,96.2477,VALID,0,VALID,18.625,VALID,133,VALID,1.88213,
2004-02-24, 00:55:01,VALID,918.974,VALID,0,VALID,96.544,VALID,-0.0169808,VALID,18.5798,VALID,140,VALID,2.06209,
2004-02-24, 00:56:01,VALID,918.96,VALID,0,VALID,96.8708,VALID,0,VALID,18.5572,VALID,141,VALID,1.73474,
2004-02-24, 00:57:01,VALID,918.953,VALID,0,VALID,97.0641,VALID,0,VALID,18.5448,VALID,141,VALID,1.7167,
2004-02-24, 00:58:01,VALID,918.943,VALID,0,VALID,97.1595,VALID,0,VALID,18.5086,VALID,136,VALID,1.72947,
2004-02-24, 00:59:01,VALID,918.928,VALID,0,VALID,97.4036,VALID,0,VALID,18.5155,VALID,123,VALID,1.74219,
2004-02-24, 01:00:01,VALID,918.919,VALID,0,VALID,97.5435,VALID,0.0169808,VALID,18.4894,VALID,114,VALID,1.73177,
2004-02-24, 01:01:01,VALID,918.914,VALID,0,VALID,97.8182,VALID,0,VALID,18.4798,VALID,90,VALID,1.34043,
2004-02-24, 01:02:01,VALID,918.913,VALID,0,VALID,98,VALID,-0.0169808,VALID,18.4705,VALID,82,VALID,1.34032,
2004-02-24, 01:03:01,VALID,918.916,VALID,0,VALID,98.2404,VALID,-0.0169808,VALID,18.4604,VALID,99,VALID,1.37447,
2004-02-24, 01:04:01,VALID,918.902,VALID,0,VALID,98.3192,VALID,0,VALID,18.4447,VALID,107,VALID,1.02839,
2004-02-24, 01:05:01,VALID,918.894,VALID,0,VALID,98.3662,VALID,-0.0339617,VALID,18.4092,VALID,106,VALID,1.56406,
2004-02-24, 01:06:01,VALID,918.885,VALID,0,VALID,98.3828,VALID,0,VALID,18.3933,VALID,104,VALID,1.75372,
2004-02-24, 01:07:01,VALID,918.879,VALID,0,VALID,98.2531,VALID,0,VALID,18.358,VALID,114,VALID,1.38772,
2004-02-24, 01:08:01,VALID,918.873,VALID,0,VALID,98.4171,VALID,0,VALID,18.3444,VALID,104,VALID,1.42578,
2004-02-24, 01:09:01,VALID,918.868,VALID,0,VALID,98.4642,VALID,-0.0339617,VALID,18.3419,VALID,119,VALID,1.76135,
2004-02-24, 01:10:01,VALID,918.862,VALID,0,VALID,98.3535,VALID,0,VALID,18.3225,VALID,125,VALID,1.66229,
2004-02-24, 01:11:00,VALID,918.849,VALID,0,VALID,98.2696,VALID,-0.0339617,VALID,18.3094,VALID,122,VALID,1.72619,
2004-02-24, 01:12:00,VALID,918.853,VALID,0.2,VALID,98.1424,VALID,-0.0169808,VALID,18.3061,VALID,125,VALID,1.72196,
2004-02-24, 01:13:00,VALID,918.844,VALID,0,VALID,97.9326,VALID,-0.0169808,VALID,18.3029,VALID,116,VALID,1.63167,
2004-02-24, 01:14:00,VALID,918.839,VALID,0,VALID,97.8462,VALID,0,VALID,18.293,VALID,111,VALID,1.64977,
2004-02-24, 01:15:00,VALID,918.833,VALID,0,VALID,97.9237,VALID,0.0679233,VALID,18.3211,VALID,129,VALID,1.45017,
2004-02-24, 01:16:00,VALID,918.811,VALID,0,VALID,97.9517,VALID,0.0849042,VALID,18.3209,VALID,129,VALID,1.46189,
2004-02-24, 01:17:00,VALID,918.807,VALID,0,VALID,97.9364,VALID,0.0679233,VALID,18.3241,VALID,126,VALID,1.58976,
2004-02-24, 01:18:00,VALID,918.793,VALID,0,VALID,97.9784,VALID,0.0849042,VALID,18.3211,VALID,125,VALID,1.42637,
2004-02-24, 01:19:00,VALID,918.773,VALID,0,VALID,97.9682,VALID,0.0339617,VALID,18.308,VALID,128,VALID,1.6495,
2004-02-24, 01:20:00,VALID,918.75,VALID,0,VALID,97.7114,VALID,0.0679233,VALID,18.3084,VALID,125,VALID,1.77649,
2004-02-24, 01:21:00,VALID,918.745,VALID,0,VALID,97.7292,VALID,0.0679233,VALID,18.3084,VALID,128,VALID,1.54743,
2004-02-24, 01:22:00,VALID,918.735,VALID,0,VALID,97.5295,VALID,0.0849042,VALID,18.2951,VALID,131,VALID,1.80938,
2004-02-24, 01:23:00,VALID,918.736,VALID,0,VALID,97.5194,VALID,0.0679233,VALID,18.3048,VALID,126,VALID,1.78616,
2004-02-24, 01:24:00,VALID,918.719,VALID,0,VALID,97.457,VALID,0.0849042,VALID,18.3144,VALID,128,VALID,2.03869,
2004-02-24, 01:25:00,VALID,918.71,VALID,0,VALID,97.4265,VALID,0.0849042,VALID,18.3082,VALID,121,VALID,1.66914,
2004-02-24, 01:26:00,VALID,918.691,VALID,0,VALID,97.2371,VALID,0.0849042,VALID,18.3015,VALID,118,VALID,2.10807,
2004-02-24, 01:27:00,VALID,918.669,VALID,0,VALID,97.0794,VALID,0.101885,VALID,18.2918,VALID,122,VALID,1.9122,
2004-02-24, 01:28:00,VALID,918.641,VALID,0,VALID,97.0031,VALID,0.118866,VALID,18.2985,VALID,124,VALID,2.11364,
2004-02-24, 01:29:00,VALID,918.646,VALID,0,VALID,97.115,VALID,0.0679233,VALID,18.2861,VALID,119,VALID,1.64063,
2004-02-24, 01:30:00,VALID,918.623,VALID,0,VALID,97.4151,VALID,-0.0679233,VALID,18.2935,VALID,114,VALID,1.50959,
2004-02-24, 01:31:00,VALID,918.602,VALID,0,VALID,97.541,VALID,0,VALID,18.3004,VALID,111,VALID,1.69967,
2004-02-24, 01:32:00,VALID,918.589,VALID,0,VALID,97.5944,VALID,-0.101885,VALID,18.2715,VALID,118,VALID,1.76048,
2004-02-24, 01:33:00,VALID,918.567,VALID,0,VALID,97.5511,VALID,-0.0679233,VALID,18.2519,VALID,124,VALID,1.84774,
2004-02-24, 01:34:00,VALID,918.545,VALID,0,VALID,97.4698,VALID,-0.0679233,VALID,18.246,VALID,113,VALID,2.06641,
2004-02-24, 01:35:00,VALID,918.54,VALID,0,VALID,97.2625,VALID,-0.0679233,VALID,18.243,VALID,125,VALID,1.75712,
2004-02-24, 01:36:00,VALID,918.534,VALID,0,VALID,96.9891,VALID,-0.0849042,VALID,18.2326,VALID,127,VALID,1.91824,
2004-02-24, 01:37:00,VALID,918.523,VALID,0,VALID,97.1519,VALID,-0.0339617,VALID,18.2651,VALID,126,VALID,1.62816,
2004-02-24, 01:38:00,VALID,918.509,VALID,0,VALID,97.1786,VALID,-0.0169808,VALID,18.2713,VALID,117,VALID,1.80305,
2004-02-24, 01:39:00,VALID,918.506,VALID,0,VALID,97.2968,VALID,-0.0679233,VALID,18.2683,VALID,117,VALID,1.33841,
2004-02-24, 01:40:00,VALID,918.498,VALID,0,VALID,97.3769,VALID,-0.0169808,VALID,18.2582,VALID,126,VALID,1.66221,
2004-02-24, 01:41:00,VALID,918.495,VALID,0,VALID,97.5003,VALID,-0.0509425,VALID,18.2619,VALID,119,VALID,1.47711,
2004-02-24, 01:42:00,VALID,918.494,VALID,0,VALID,97.5461,VALID,0,VALID,18.2455,VALID,118,VALID,1.20122,
2004-02-24, 01:43:00,VALID,918.474,VALID,0,VALID,97.5015,VALID,-0.0339617,VALID,18.2259,VALID,129,VALID,1.57755,
2004-02-24, 01:44:00,VALID,918.468,VALID,0,VALID,97.5397,VALID,-0.0339617,VALID,18.2227,VALID,128,VALID,1.81726,
2004-02-24, 01:45:00,VALID,918.466,VALID,0,VALID,97.452,VALID,-0.0509425,VALID,18.21,VALID,125,VALID,1.25705,
2004-02-24, 01:46:00,VALID,918.467,VALID,0,VALID,97.3197,VALID,-0.0509425,VALID,18.2229,VALID,123,VALID,1.75972,
2004-02-24, 01:47:00,VALID,918.454,VALID,0,VALID,97.1506,VALID,-0.0339617,VALID,18.2162,VALID,124,VALID,2.07924,
2004-02-24, 01:48:00,VALID,918.471,VALID,0,VALID,97.129,VALID,-0.0339617,VALID,18.2427,VALID,122,VALID,1.49121,
2004-02-24, 01:49:00,VALID,918.475,VALID,0,VALID,97.1302,VALID,-0.0679233,VALID,18.2619,VALID,122,VALID,1.47533,
2004-02-24, 01:50:00,VALID,918.476,VALID,0,VALID,97.2777,VALID,-0.0849042,VALID,18.2685,VALID,112,VALID,1.44341,
2004-02-24, 01:51:00,VALID,918.472,VALID,0,VALID,97.2739,VALID,-0.0509425,VALID,18.2711,VALID,96,VALID,1.16101,
2004-02-24, 01:52:00,VALID,918.459,VALID,0,VALID,97.4176,VALID,-0.0679233,VALID,18.2944,VALID,104,VALID,1.21875,
2004-02-24, 01:53:00,VALID,918.439,VALID,0,VALID,97.3248,VALID,-0.0509425,VALID,18.2976,VALID,113,VALID,1.68886,
2004-02-24, 01:54:00,VALID,918.437,VALID,0,VALID,97.4443,VALID,-0.0849042,VALID,18.3172,VALID,125,VALID,1.29288,
2004-02-24, 01:55:00,VALID,918.416,VALID,0,VALID,97.5397,VALID,-0.0509425,VALID,18.3264,VALID,137,VALID,1.57524,
2004-02-24, 01:56:00,VALID,918.406,VALID,0,VALID,97.4316,VALID,-0.0509425,VALID,18.326,VALID,144,VALID,1.89026,
2004-02-24, 01:57:00,VALID,918.389,VALID,0,VALID,97.4596,VALID,-0.0679233,VALID,18.3423,VALID,139,VALID,1.51302,
2004-02-24, 01:58:00,VALID,918.371,VALID,0,VALID,97.3922,VALID,-0.0679233,VALID,18.3587,VALID,130,VALID,1.82298,
2004-02-24, 01:59:00,VALID,918.366,VALID,0,VALID,97.3922,VALID,-0.0509425,VALID,18.3942,VALID,136,VALID,1.43461,
2004-02-24, 02:00:00,VALID,918.365,VALID,0,VALID,97.4024,VALID,0.0509425,VALID,18.406,VALID,134,VALID,1.46148,
2004-02-24, 02:01:00,VALID,918.344,VALID,0,VALID,97.4532,VALID,0.0849042,VALID,18.412,VALID,137,VALID,1.17882,
2004-02-24, 02:02:00,VALID,918.328,VALID,0,VALID,97.4481,VALID,0.0339617,VALID,18.3954,VALID,139,VALID,1.78478,
2004-02-24, 02:03:00,VALID,918.321,VALID,0,VALID,97.5562,VALID,0.0339617,VALID,18.3956,VALID,137,VALID,1.45694,
2004-02-24, 02:04:00,VALID,918.299,VALID,0,VALID,97.7203,VALID,0.0679233,VALID,18.3797,VALID,130,VALID,1.38281,
2004-02-24, 02:05:00,VALID,918.298,VALID,0,VALID,97.8182,VALID,0.0849042,VALID,18.3769,VALID,132,VALID,1.21566,
2004-02-24, 02:06:00,VALID,918.294,VALID,0,VALID,98.0051,VALID,0.0509425,VALID,18.3829,VALID,133,VALID,1.05105,
2004-02-24, 02:07:00,VALID,918.279,VALID,0,VALID,98.07,VALID,0.0849042,VALID,18.3864,VALID,127,VALID,1.24288,
2004-02-24, 02:08:00,VALID,918.284,VALID,0,VALID,98.1094,VALID,0.0679233,VALID,18.3832,VALID,127,VALID,1.14826,
2004-02-24, 02:09:00,VALID,918.271,VALID,0,VALID,98.1437,VALID,0.0509425,VALID,18.3737,VALID,127,VALID,1.3003,
2004-02-24, 02:10:00,VALID,918.272,VALID,0,VALID,98.2493,VALID,0.0679233,VALID,18.3767,VALID,124,VALID,0.951672,
2004-02-24, 02:11:00,VALID,918.266,VALID,0,VALID,98.3497,VALID,0.0509425,VALID,18.3868,VALID,116,VALID,0.740885,
2004-02-24, 02:12:00,VALID,918.263,VALID,0,VALID,98.3472,VALID,0.0509425,VALID,18.409,VALID,124,VALID,1.07914,
2004-02-24, 02:13:00,VALID,918.245,VALID,0,VALID,98.2365,VALID,0.0169808,VALID,18.4253,VALID,121,VALID,1.04403,
2004-02-24, 02:14:00,VALID,918.227,VALID,0,VALID,98.2048,VALID,0.0169808,VALID,18.4475,VALID,117,VALID,0.645579,
2004-02-24, 02:15:00,VALID,918.211,VALID,0,VALID,98.0941,VALID,-0.0509425,VALID,18.4648,VALID,128,VALID,0.851207,
2004-02-24, 02:16:00,VALID,918.199,VALID,0,VALID,97.9352,VALID,-0.0679233,VALID,18.4749,VALID,131,VALID,1.13356,
2004-02-24, 02:17:00,VALID,918.198,VALID,0,VALID,97.8932,VALID,-0.0339617,VALID,18.4975,VALID,131,VALID,1.10733,
2004-02-24, 02:18:00,VALID,918.179,VALID,0,VALID,97.747,VALID,-0.0509425,VALID,18.5169,VALID,131,VALID,1.32584,
2004-02-24, 02:19:00,VALID,918.175,VALID,0,VALID,97.5829,VALID,-0.0339617,VALID,18.5363,VALID,130,VALID,1.40816,
2004-02-24, 02:20:00,VALID,918.182,VALID,0,VALID,97.41,VALID,-0.0169808,VALID,18.552,VALID,129,VALID,1.31014,
2004-02-24, 02:21:00,VALID,918.183,VALID,0,VALID,97.2218,VALID,-0.0169808,VALID,18.5815,VALID,124,VALID,1.33389,
2004-02-24, 02:22:00,VALID,918.185,VALID,0,VALID,97.1226,VALID,-0.0339617,VALID,18.5976,VALID,119,VALID,1.12083,
2004-02-24, 02:23:00,VALID,918.201,VALID,0,VALID,97.0768,VALID,-0.0339617,VALID,18.6105,VALID,122,VALID,1.07955,
2004-02-24, 02:24:00,VALID,918.198,VALID,0,VALID,97.1849,VALID,-0.0509425,VALID,18.6205,VALID,113,VALID,0.908913,
2004-02-24, 02:25:00,VALID,918.203,VALID,0,VALID,97.2498,VALID,-0.0509425,VALID,18.6304,VALID,128,VALID,0.87593,
2004-02-24, 02:26:00,VALID,918.201,VALID,0,VALID,97.3515,VALID,-0.0339617,VALID,18.623,VALID,120,VALID,0.718006,
2004-02-24, 02:27:00,VALID,918.2,VALID,0,VALID,97.4253,VALID,-0.0679233,VALID,18.6202,VALID,128,VALID,0.69093,
2004-02-24, 02:28:00,VALID,918.199,VALID,0,VALID,97.4532,VALID,-0.0169808,VALID,18.6267,VALID,137,VALID,0.82706,
2004-02-24, 02:29:00,VALID,918.19,VALID,0,VALID,97.5295,VALID,-0.0679233,VALID,18.6297,VALID,131,VALID,0.67133,
2004-02-24, 02:30:00,VALID,918.18,VALID,0,VALID,97.5791,VALID,0,VALID,18.6391,VALID,146,VALID,0.680398,
2004-02-24, 02:31:00,VALID,918.187,VALID,0,VALID,97.4685,VALID,-0.0169808,VALID,18.626,VALID,143,VALID,0.644817,
2004-02-24, 02:32:00,VALID,918.182,VALID,0,VALID,97.354,VALID,0.0169808,VALID,18.6262,VALID,143,VALID,0.839472,
2004-02-24, 02:33:00,VALID,918.184,VALID,0,VALID,97.3388,VALID,0,VALID,18.623,VALID,138,VALID,0.73981,
2004-02-24, 02:34:00,VALID,918.182,VALID,0,VALID,97.4075,VALID,-0.0169808,VALID,18.6299,VALID,135,VALID,0.938227,
2004-02-24, 02:35:00,VALID,918.189,VALID,0,VALID,97.4469,VALID,-0.0169808,VALID,18.6264,VALID,124,VALID,0.973357,
2004-02-24, 02:36:00,VALID,918.2,VALID,0,VALID,97.466,VALID,-0.0169808,VALID,18.6131,VALID,111,VALID,0.885231,
2004-02-24, 02:37:00,VALID,918.21,VALID,0,VALID,97.485,VALID,0,VALID,18.587,VALID,124,VALID,1.08687,
2004-02-24, 02:38:00,VALID,918.207,VALID,0,VALID,97.5753,VALID,-0.0339617,VALID,18.5946,VALID,136,VALID,1.08457,
2004-02-24, 02:39:00,VALID,918.201,VALID,0,VALID,97.616,VALID,-0.0169808,VALID,18.5909,VALID,138,VALID,0.969322,
2004-02-24, 02:40:00,VALID,918.199,VALID,0,VALID,97.6007,VALID,0,VALID,18.6008,VALID,137,VALID,1.12411,
2004-02-24, 02:41:00,VALID,918.188,VALID,0,VALID,97.6249,VALID,-0.0169808,VALID,18.5944,VALID,144,VALID,1.07304,
2004-02-24, 02:42:00,VALID,918.168,VALID,0,VALID,97.6541,VALID,-0.0169808,VALID,18.5942,VALID,143,VALID,1.05678,
2004-02-24, 02:43:00,VALID,918.163,VALID,0,VALID,97.5982,VALID,-0.0339617,VALID,18.584,VALID,151,VALID,1.19215,
2004-02-24, 02:44:00,VALID,918.161,VALID,0,VALID,97.6211,VALID,-0.0169808,VALID,18.5877,VALID,143,VALID,1.00709,
2004-02-24, 02:45:00,VALID,918.161,VALID,0,VALID,97.6046,VALID,0,VALID,18.5805,VALID,141,VALID,1.23379,
2004-02-24, 02:46:00,VALID,918.17,VALID,0,VALID,97.5575,VALID,0,VALID,18.5905,VALID,144,VALID,1.05669,
2004-02-24, 02:47:00,VALID,918.169,VALID,0,VALID,97.527,VALID,-0.0169808,VALID,18.5907,VALID,137,VALID,1.13105,
2004-02-24, 02:48:00,VALID,918.175,VALID,0,VALID,97.5804,VALID,0,VALID,18.5838,VALID,144,VALID,0.940234,
2004-02-24, 02:49:00,VALID,918.16,VALID,0,VALID,97.602,VALID,0,VALID,18.5907,VALID,133,VALID,0.860547,
2004-02-24, 02:50:00,VALID,918.157,VALID,0,VALID,97.5867,VALID,0.0169808,VALID,18.5902,VALID,145,VALID,1.08613,
2004-02-24, 02:51:00,VALID,918.145,VALID,0,VALID,97.5232,VALID,0,VALID,18.593,VALID,147,VALID,1.27217,
2004-02-24, 02:52:00,VALID,918.133,VALID,0,VALID,97.4418,VALID,0,VALID,18.6098,VALID,137,VALID,1.37827,
2004-02-24, 02:53:00,VALID,918.137,VALID,0,VALID,97.4087,VALID,0,VALID,18.6294,VALID,134,VALID,1.10338,
2004-02-24, 02:54:00,VALID,918.128,VALID,0,VALID,97.4761,VALID,0,VALID,18.6283,VALID,138,VALID,1.16367,
2004-02-24, 02:55:00,VALID,918.139,VALID,0,VALID,97.485,VALID,0,VALID,18.6354,VALID,136,VALID,1.2629,
2004-02-24, 02:56:00,VALID,918.148,VALID,0,VALID,97.4494,VALID,0,VALID,18.6357,VALID,153,VALID,0.919017,
2004-02-24, 02:57:00,VALID,918.147,VALID,0,VALID,97.4418,VALID,0,VALID,18.6357,VALID,156,VALID,0.982376,
2004-02-24, 02:58:00,VALID,918.159,VALID,0,VALID,97.3998,VALID,0,VALID,18.6359,VALID,154,VALID,1.03889,
2004-02-24, 02:59:00,VALID,918.172,VALID,0,VALID,97.4189,VALID,0,VALID,18.6292,VALID,148,VALID,1.44746,
2004-02-24, 03:00:00,VALID,918.168,VALID,0,VALID,97.3782,VALID,-0.0339617,VALID,18.6359,VALID,148,VALID,1.16624,
2004-02-24, 03:01:00,VALID,918.171,VALID,0,VALID,97.2396,VALID,0,VALID,18.6423,VALID,144,VALID,1.39725,
2004-02-24, 03:02:00,VALID,918.159,VALID,0,VALID,97.1849,VALID,0.0169808,VALID,18.6449,VALID,139,VALID,1.33854,
2004-02-24, 03:03:00,VALID,918.153,VALID,0,VALID,97.1315,VALID,0,VALID,18.6647,VALID,130,VALID,0.832031,
2004-02-24, 03:04:00,VALID,918.16,VALID,0,VALID,97.1417,VALID,0,VALID,18.6774,VALID,115,VALID,0.950586,
2004-02-24, 03:05:00,VALID,918.169,VALID,0,VALID,97.0845,VALID,0,VALID,18.6871,VALID,107,VALID,0.935976,
2004-02-24, 03:06:00,VALID,918.183,VALID,0,VALID,97.073,VALID,0,VALID,18.6938,VALID,98,VALID,0.900724,
2004-02-24, 03:07:00,VALID,918.198,VALID,0,VALID,97.1595,VALID,0,VALID,18.7129,VALID,94,VALID,0.8375,
2004-02-24, 03:08:00,VALID,918.205,VALID,0,VALID,97.2002,VALID,0,VALID,18.7293,VALID,107,VALID,0.952009,
2004-02-24, 03:09:00,VALID,918.21,VALID,0,VALID,97.2104,VALID,-0.0169808,VALID,18.7228,VALID,107,VALID,0.841844,
2004-02-24, 03:10:00,VALID,918.217,VALID,0,VALID,97.129,VALID,0.0169808,VALID,18.7355,VALID,111,VALID,0.839558,
2004-02-24, 03:11:00,VALID,918.205,VALID,0,VALID,96.9497,VALID,0,VALID,18.7258,VALID,110,VALID,0.820135,
2004-02-24, 03:12:00,VALID,918.208,VALID,0,VALID,96.9929,VALID,-0.0169808,VALID,18.7454,VALID,120,VALID,0.740371,
2004-02-24, 03:13:00,VALID,918.183,VALID,0,VALID,96.9853,VALID,0,VALID,18.7514,VALID,113,VALID,0.883903,
2004-02-24, 03:14:00,VALID,918.179,VALID,0,VALID,97.0476,VALID,-0.0169808,VALID,18.7484,VALID,83,VALID,0.950335,
2004-02-24, 03:15:00,VALID,918.18,VALID,0,VALID,96.9166,VALID,0,VALID,18.7581,VALID,117,VALID,1.01493,
2004-02-24, 03:16:00,VALID,918.162,VALID,0,VALID,96.9103,VALID,-0.0169808,VALID,18.7643,VALID,114,VALID,0.698475,
2004-02-24, 03:17:00,VALID,918.149,VALID,0,VALID,96.8034,VALID,0,VALID,18.7676,VALID,110,VALID,1.16574,
2004-02-24, 03:18:00,VALID,918.152,VALID,0,VALID,96.7933,VALID,-0.0169808,VALID,18.7715,VALID,104,VALID,0.897892,
2004-02-24, 03:19:00,VALID,918.143,VALID,0,VALID,96.8721,VALID,0,VALID,18.771,VALID,116,VALID,0.793527,
2004-02-24, 03:20:00,VALID,918.146,VALID,0,VALID,96.9331,VALID,0,VALID,18.7777,VALID,125,VALID,0.914757,
2004-02-24, 03:21:00,VALID,918.129,VALID,0,VALID,97.0832,VALID,0,VALID,18.7479,VALID,115,VALID,0.932231,
2004-02-24, 03:22:00,VALID,918.125,VALID,0,VALID,97.2167,VALID,0.0169808,VALID,18.7387,VALID,117,VALID,1.14208,
2004-02-24, 03:23:00,VALID,918.127,VALID,0,VALID,97.3718,VALID,0,VALID,18.7224,VALID,122,VALID,1.24653,
2004-02-24, 03:24:00,VALID,918.108,VALID,0,VALID,97.466,VALID,0.0169808,VALID,18.7064,VALID,125,VALID,1.48941,
2004-02-24, 03:25:00,VALID,918.094,VALID,0,VALID,97.5384,VALID,0.0169808,VALID,18.6903,VALID,123,VALID,1.34673,
2004-02-24, 03:26:00,VALID,918.084,VALID,0,VALID,97.5753,VALID,0,VALID,18.6806,VALID,123,VALID,1.63136,
2004-02-24, 03:27:00,VALID,918.055,VALID,0,VALID,97.6046,VALID,0,VALID,18.6806,VALID,120,VALID,1.56232,
2004-02-24, 03:28:00,VALID,918.05,VALID,0,VALID,97.5511,VALID,0.0169808,VALID,18.6935,VALID,126,VALID,1.1976,
2004-02-24, 03:29:00,VALID,918.03,VALID,0,VALID,97.5321,VALID,0,VALID,18.6901,VALID,131,VALID,1.34121,
2004-02-24, 03:30:00,VALID,918.023,VALID,0,VALID,97.4774,VALID,-0.0509425,VALID,18.7035,VALID,123,VALID,1.32449,
2004-02-24, 03:31:00,VALID,918.006,VALID,0,VALID,97.3439,VALID,-0.0509425,VALID,18.7235,VALID,124,VALID,1.55087,
2004-02-24, 03:32:00,VALID,918.006,VALID,0,VALID,97.2307,VALID,-0.0849042,VALID,18.7268,VALID,122,VALID,1.33651,
2004-02-24, 03:33:00,VALID,917.997,VALID,0,VALID,97.2523,VALID,-0.101885,VALID,18.7429,VALID,121,VALID,1.04506,
2004-02-24, 03:34:00,VALID,918.001,VALID,0,VALID,97.2536,VALID,-0.0509425,VALID,18.7558,VALID,121,VALID,1.3266,
2004-02-24, 03:35:00,VALID,917.999,VALID,0,VALID,97.2765,VALID,-0.101885,VALID,18.7563,VALID,115,VALID,1.27129,